Location: Munkebjergskolens Observatorium
(55.3864°N, 10.3987°E)
Time: 14:43:57
(UTC+02:00)

AO-91 - Visible Passes

Search period start: 28 March 2023 00:00
Search period end: 07 April 2023 00:00
Orbit: 448 x 779 km, 97.6° (Epoch: 27 March)

Date Brightness Start Highest point End Pass type
(mag) Time Alt. Az. Time Alt. Az. Time Alt. Az.
28 Mar ? 01:20:06 10° N 01:24:02 25° WNW 01:24:13 25° WNW visible
28 Mar ? 22:23:43 10° NE 22:25:54 18° ENE 22:25:54 18° ENE visible
28 Mar ? 23:58:54 10° NNE 00:02:57 61° N 00:02:57 61° N visible
29 Mar ? 01:35:45 10° N 01:39:18 20° NW 01:40:00 20° WNW visible
29 Mar ? 22:38:45 10° NE 22:41:39 23° ENE 22:41:39 23° ENE visible
30 Mar ? 00:14:19 10° N 00:18:42 61° NNW 00:18:42 61° NNW visible
30 Mar ? 01:51:28 10° NNW 01:54:30 17° NW 01:55:45 15° WNW visible
30 Mar ? 22:53:54 10° NNE 22:57:22 30° ENE 22:57:22 30° ENE visible
31 Mar ? 00:29:45 10° N 00:34:25 52° WNW 00:34:25 52° WNW visible
31 Mar ? 02:07:17 10° NNW 02:09:40 14° NW 02:11:28 11° WNW visible
31 Mar ? 23:09:07 10° NNE 23:13:05 39° ENE 23:13:05 39° ENE visible
01 Apr ? 00:45:12 10° N 00:49:55 41° WNW 00:50:07 41° WNW visible
01 Apr ? 02:23:24 10° NNW 02:24:46 11° NW 02:26:08 10° WNW visible
01 Apr ? 21:50:56 10° ENE 21:51:42 11° ENE 21:51:42 11° ENE visible
01 Apr ? 23:24:21 10° NNE 23:28:45 51° ENE 23:28:45 51° ENE visible
02 Apr ? 01:00:40 10° N 01:05:09 33° WNW 01:05:48 32° WNW visible
02 Apr ? 22:05:05 10° NE 22:07:22 14° ENE 22:07:22 14° ENE visible
02 Apr ? 23:39:37 10° NNE 23:44:24 69° ENE 23:44:24 69° ENE visible
03 Apr ? 01:16:08 10° N 01:20:20 27° WNW 01:21:26 25° WNW visible
03 Apr ? 22:19:49 10° NE 22:22:59 19° E 22:22:59 19° E visible
03 Apr ? 23:54:54 10° NNE 00:00:01 89° N 00:00:01 89° N visible
04 Apr ? 01:31:39 10° N 01:35:28 22° NW 01:37:03 19° W visible
04 Apr ? 22:34:43 10° NE 22:38:35 24° E 22:38:35 24° E visible
05 Apr ? 00:10:12 10° NNE 00:15:20 71° WNW 00:15:37 69° W visible
05 Apr ? 01:47:11 10° N 01:50:33 18° NW 01:52:40 14° W visible
05 Apr ? 22:49:44 10° NNE 22:54:09 31° E 22:54:09 31° E visible
06 Apr ? 00:25:31 10° N 00:30:33 56° WNW 00:31:11 52° W visible
06 Apr ? 02:02:50 10° NNW 02:05:35 15° NW 02:08:13 10° W visible
06 Apr ? 23:04:49 10° NNE 23:09:42 40° E 23:09:42 40° E visible
